CW6490 Weather Reports


Display with metric or nautical units.
time (UTC)temp
F
wind
direction
speed
MPH
gust
MPH
rain 1hr
in
rain 24hr
in
rain mn
in
humidity
%
barometer
mb
20260507182837 88 145 2.0 8.0 0.00 0.00 0.00 13 1012.9
20260507181812 88 41 6.0 10.0 0.00 0.00 0.00 14 1013.0
20260507180826 87 312 0.0 7.0 0.00 0.00 0.00 16 1013.2
20260507175819 86 164 1.0 4.0 0.00 0.00 0.00 17 1013.3
20260507174852 86 137 0.0 3.0 0.00 0.00 0.00 17 1013.4
20260507173824 87 86 2.0 6.0 0.00 0.00 0.00 17 1013.6
20260507172818 86 118 1.0 3.0 0.00 0.00 0.00 19 1013.7
20260507171812 85 106 1.0 5.0 0.00 0.00 0.00 19 1013.8
20260507170826 84 88 1.0 4.0 0.00 0.00 0.00 19 1013.8
20260507165818 83 62 1.0 4.0 0.00 0.00 0.00 21 1013.9
20260507164832 83 102 0.0 3.0 0.00 0.00 0.00 22 1014.0
20260507163826 82 156 2.0 4.0 0.00 0.00 0.00 22 1014.0
20260507162822 82 107 2.0 4.0 0.00 0.00 0.00 22 1014.1
20260507161816 81 33 1.0 3.0 0.00 0.00 0.00 23 1014.1
20260507160831 80 266 1.0 2.0 0.00 0.00 0.00 26 1014.2
20260507155824 79 187 0.0 3.0 0.00 0.00 0.00 26 1014.3
20260507154837 78 170 1.0 3.0 0.00 0.00 0.00 27 1014.4
20260507153853 78 164 0.0 2.0 0.00 0.00 0.00 30 1014.5
20260507152826 77 106 1.0 6.0 0.00 0.00 0.00 31 1014.4
20260507151820 76 160 1.0 4.0 0.00 0.00 0.00 32 1014.4
20260507150813 75 93 2.0 8.0 0.00 0.00 0.00 33 1014.4
20260507145827 75 62 2.0 7.0 0.00 0.00 0.00 31 1014.4
20260507144822 75 81 2.0 6.0 0.00 0.00 0.00 32 1014.3
20260507143853 74 44 3.0 6.0 0.00 0.00 0.00 31 1014.3
20260507142827 73 26 2.0 5.0 0.00 0.00 0.00 31 1014.3
20260507141818 72 39 1.0 3.0 0.00 0.00 0.00 32 1014.2
20260507140831 72 91 1.0 2.0 0.00 0.00 0.00 33 1014.2
20260507135825 72 89 1.0 3.0 0.00 0.00 0.00 33 1014.2
20260507134821 71 64 0.0 1.0 0.00 0.00 0.00 34 1014.1
20260507133814 71 83 0.0 1.0 0.00 0.00 0.00 33 1014.0
20260507132826 70 91 1.0 6.0 0.00 0.00 0.00 33 1014.0
20260507131821 71 21 3.0 9.0 0.00 0.00 0.00 31 1013.8
20260507130818 69 16 4.0 11.0 0.00 0.00 0.00 33 1013.5
20260507125813 68 358 3.0 9.0 0.00 0.00 0.00 33 1013.7
20260507124826 68 356 2.0 6.0 0.00 0.00 0.00 34 1013.7
20260507123819 68 4 3.0 5.0 0.00 0.00 0.00 33 1013.7
20260507122852 68 359 2.0 6.0 0.00 0.00 0.00 33 1013.6
20260507121824 68 336 2.0 4.0 0.00 0.00 0.00 33 1013.6
20260507120821 69 71 2.0 5.0 0.00 0.00 0.00 32 1013.7
20260507115815 69 357 4.0 8.0 0.00 0.00 0.00 32 1013.7
20260507114825 69 22 3.0 7.0 0.00 0.00 0.00 32 1013.7
20260507113818 69 357 1.0 5.0 0.00 0.00 0.00 32 1013.7
20260507112832 69 2 3.0 6.0 0.00 0.00 0.00 32 1013.5
20260507111829 69 23 1.0 4.0 0.00 0.00 0.00 32 1013.5
20260507110824 68 27 2.0 5.0 0.00 0.00 0.00 33 1013.6
20260507105817 68 5 1.0 3.0 0.00 0.00 0.00 34 1013.7
20260507104829 68 4 2.0 6.0 0.00 0.00 0.00 34 1013.8
20260507103823 68 351 2.0 4.0 0.00 0.00 0.00 34 1013.9
20260507102818 68 358 0.0 2.0 0.00 0.00 0.00 35 1013.9
20260507101852 68 357 1.0 3.0 0.00 0.00 0.00 34 1014.0
20260507100825 67 2 0.0 1.0 0.00 0.00 0.00 35 1014.1
20260507095817 66 1 0.0 1.0 0.00 0.00 0.00 36 1014.1
20260507094830 67 1 0.0 1.0 0.00 0.00 0.00 36 1014.3
20260507093826 68 3 0.0 0.0 0.00 0.00 0.00 35 1014.3
20260507092819 69 3 0.0 1.0 0.00 0.00 0.00 33 1014.3
20260507091815 70 5 0.0 3.0 0.00 0.00 0.00 33 1014.3
20260507090829 70 6 1.0 3.0 0.00 0.00 0.00 32 1014.3
20260507085843 70 351 2.0 6.0 0.00 0.00 0.00 32 1014.3
20260507084821 70 360 2.0 5.0 0.00 0.00 0.00 32 1014.4
20260507083835 71 16 2.0 4.0 0.00 0.00 0.00 32 1014.5
20260507082829 71 360 1.0 5.0 0.00 0.00 0.00 32 1014.5
20260507081822 71 7 1.0 3.0 0.00 0.00 0.00 32 1014.5
20260507080814 70 356 0.0 3.0 0.00 0.00 0.00 33 1014.6
20260507075832 70 343 0.0 1.0 0.00 0.00 0.00 34 1014.7
20260507074827 69 343 0.0 0.0 0.00 0.00 0.00 36 1014.7
20260507073819 69 343 0.0 0.0 0.00 0.00 0.00 36 1014.7
20260507072834 70 343 0.0 0.0 0.00 0.00 0.00 34 1014.7
20260507071828 71 343 0.0 0.0 0.00 0.00 0.00 33 1014.6
20260507070840 71 342 0.0 0.0 0.00 0.00 0.00 32 1014.6
20260507065816 72 358 0.0 2.0 0.00 0.00 0.00 31 1014.6
20260507064848 73 1 1.0 2.0 0.00 0.00 0.00 31 1014.5
20260507063819 72 287 0.0 1.0 0.00 0.00 0.00 30 1014.5
20260507062813 73 287 0.0 0.0 0.00 0.00 0.00 29 1014.4
20260507061827 73 287 0.0 0.0 0.00 0.00 0.00 29 1014.5
20260507060824 74 287 0.0 1.0 0.00 0.00 0.00 29 1014.5
20260507055815 74 287 0.0 1.0 0.00 0.00 0.00 28 1014.5
20260507054847 73 287 0.0 1.0 0.00 0.00 0.00 29 1014.4
20260507053840 73 208 0.0 0.0 0.00 0.00 0.00 31 1014.5
20260507052832 72 208 0.0 0.0 0.00 0.00 0.00 30 1014.5
20260507051824 73 208 0.0 0.0 0.00 0.00 0.00 30 1014.6
20260507050824 74 208 0.0 0.0 0.00 0.00 0.00 30 1014.5
20260507045818 74 208 0.0 0.0 0.00 0.00 0.00 29 1014.3
20260507044830 72 208 0.0 0.0 0.00 0.00 0.00 31 1014.3
20260507043824 73 208 0.0 0.0 0.00 0.00 0.00 30 1014.2
20260507042816 74 209 0.0 0.0 0.00 0.00 0.00 29 1014.2
20260507041813 74 209 0.0 0.0 0.00 0.00 0.00 28 1014.1
20260507040825 75 208 0.0 0.0 0.00 0.00 0.00 27 1014.0
20260507035819 76 209 0.0 0.0 0.00 0.00 0.00 26 1013.8
20260507034852 77 208 0.0 0.0 0.00 0.00 0.00 25 1013.7
20260507033825 77 208 0.0 1.0 0.00 0.00 0.00 25 1013.6
20260507032823 78 206 0.0 0.0 0.00 0.00 0.00 24 1013.5
20260507031819 78 206 0.0 1.0 0.00 0.00 0.00 24 1013.4
20260507030812 79 192 0.0 2.0 0.00 0.00 0.00 23 1013.2
20260507025825 79 204 1.0 2.0 0.00 0.00 0.00 23 1013.1
20260507024837 79 214 1.0 2.0 0.00 0.00 0.00 23 1013.1
20260507023812 80 221 0.0 2.0 0.00 0.00 0.00 23 1012.9
20260507022825 80 225 1.0 1.0 0.00 0.00 0.00 22 1012.8
20260507021818 81 221 1.0 2.0 0.00 0.00 0.00 22 1012.7
20260507020831 81 231 0.0 3.0 0.00 0.00 0.00 22 1012.6
20260507015844 81 215 0.0 1.0 0.00 0.00 0.00 22 1012.6
20260507014820 82 223 2.0 3.0 0.00 0.00 0.00 21 1012.5
20260507013812 82 232 2.0 7.0 0.00 0.00 0.00 21 1012.5
20260507012826 84 231 2.0 4.0 0.00 0.00 0.00 20 1012.6
20260507011818 84 229 2.0 6.0 0.00 0.00 0.00 20 1012.5
20260507010831 85 229 0.0 4.0 0.00 0.00 0.00 20 1012.6
20260507005827 85 284 1.0 6.0 0.00 0.00 0.00 20 1012.5
20260507004819 84 227 3.0 7.0 0.00 0.00 0.00 20 1012.5
20260507003831 85 344 0.0 3.0 0.00 0.00 0.00 20 1012.5
20260507002823 84 356 1.0 4.0 0.00 0.00 0.00 21 1012.4
20260507001838 84 203 3.0 9.0 0.00 0.00 0.00 21 1012.4
20260507000850 85 274 0.0 5.0 0.00 0.00 0.00 21 1012.4
20260506235847 85 291 3.0 8.0 0.00 0.00 0.00 20 1012.3
20260506234820 84 214 2.0 5.0 0.00 0.00 0.00 21 1012.4
20260506233812 84 214 3.0 8.0 0.00 0.00 0.00 21 1012.6
20260506232824 85 224 2.0 6.0 0.00 0.00 0.00 20 1012.6
20260506231817 84 226 1.0 6.0 0.00 0.00 0.00 21 1012.7
20260506230814 85 218 2.0 8.0 0.00 0.00 0.00 21 1012.9
20260506225827 85 142 1.0 7.0 0.00 0.00 0.00 21 1012.9
20260506224819 86 227 1.0 7.0 0.00 0.00 0.00 20 1013.1
20260506223852 83 236 1.0 6.0 0.00 0.00 0.00 23 1013.2
20260506222824 83 27 2.0 8.0 0.00 0.00 0.00 21 1013.3
20260506221818 84 172 3.0 6.0 0.00 0.00 0.00 21 1013.4
20260506220834 84 315 3.0 6.0 0.00 0.00 0.00 22 1013.5
20260506215829 83 119 2.0 6.0 0.00 0.00 0.00 21 1013.7
20260506214822 83 279 2.0 4.0 0.00 0.00 0.00 21 1013.9
20260506213815 83 331 2.0 5.0 0.00 0.00 0.00 22 1014.0
20260506212827 82 189 2.0 8.0 0.00 0.00 0.00 23 1014.1
20260506211824 81 313 4.0 13.0 0.00 0.00 0.00 22 1014.4
20260506210816 82 241 3.0 8.0 0.00 0.00 0.00 22 1014.4
20260506205830 81 232 2.0 9.0 0.00 0.00 0.00 24 1014.6
20260506204822 81 25 4.0 10.0 0.00 0.00 0.00 23 1014.8
20260506203834 83 345 3.0 10.0 0.00 0.00 0.00 23 1015.0
20260506202825 82 198 2.0 5.0 0.00 0.00 0.00 23 1015.0
20260506201820 81 270 3.0 9.0 0.00 0.00 0.00 23 1015.1
20260506200813 79 234 1.0 5.0 0.00 0.00 0.00 25 1015.1
20260506195825 80 245 3.0 9.0 0.00 0.00 0.00 24 1015.3
20260506194818 81 252 5.0 9.0 0.00 0.00 0.00 25 1015.4
20260506193831 80 4 1.0 3.0 0.00 0.00 0.00 25 1015.5
20260506192828 79 36 2.0 7.0 0.00 0.00 0.00 25 1015.6
20260506191818 79 79 3.0 10.0 0.00 0.00 0.00 26 1015.7
20260506190831 77 162 3.0 8.0 0.00 0.00 0.00 26 1015.7
20260506185823 77 177 2.0 10.0 0.00 0.00 0.00 27 1016.0
20260506184816 77 222 3.0 8.0 0.00 0.00 0.00 28 1016.1
20260506183847 78 185 5.0 11.0 0.00 0.00 0.00 28 1016.2